Flag for Portugal Weather past 2 weeks in Loures, Portugal

Now
66 °F

Sunny.


Feels Like: 66 °F
Forecast: 59 / 75 °F
Wind: 13 mph from Northwest

Location: Lisbon Portela Airport

Current Time: May 30, 2015 at 10:35:26 AM

Latest Report: May 30, 2015 at 10:00 AM


Visibility: 10 mi

Pressure: 30.09 "Hg

Humidity: 60%

Dew point: 52 °F

Location of LouresLocation

Historic Weather in Loures — Graph

°F

Loures temperature yesterday

Maximum temperature yesterday: 75 °F (at 12:00 PM)
Minimum temperature yesterday: 59 °F (at 6:30 AM)
Average temperature yesterday: 68 °F

Past Weeks' High & Low Weather Summary

 TemperatureHumidityPressure
High91 °F (May 17, 3:30 PM)100% (May 29, 6:30 AM)30.27 "Hg (May 29, 6:30 AM)
Low54 °F (May 20, 3:30 AM)13% (May 27, 3:30 PM)29.89 "Hg (May 18, 5:30 AM)
Average69 °F48%30.05 "Hg
* Reported May 15 9:00 AM — May 30 9:30 AM, Loures, Weather by CustomWeather, © 2015

Note: Actual official high and low records may vary slightly from our data, if they occured in-between our weather recording intervals... More about our weather records

Advertising

Loures weather history for previous 24 hours

 ConditionsComfort  
Time TempWeatherWind HumidityBarometerVisibility
9:30 AM
Sat, May 30
66 °FPassing clouds.8 mph56%30.09 "HgN/A
9:00 AM63 °FPassing clouds.8 mph68%30.07 "HgN/A
8:30 AM63 °FPassing clouds.2 mph68%30.07 "HgN/A
8:00 AM61 °FPassing clouds.14 mph72%30.07 "HgN/A
7:30 AM59 °FPassing clouds.16 mph77%30.04 "HgN/A
7:00 AM57 °FPassing clouds.17 mph82%30.04 "HgN/A
6:30 AM57 °FPassing clouds.15 mph82%30.04 "HgN/A
6:00 AM57 °FPassing clouds.18 mphN/A30.04 "HgN/A
5:30 AM57 °FClear.17 mph94%30.04 "Hg10 mi
5:00 AM59 °FClear.15 mph88%30.01 "Hg10 mi
4:30 AM59 °FClear.14 mph82%30.01 "Hg10 mi
4:00 AM61 °FPassing clouds.20 mph68%30.01 "HgN/A
3:30 AM61 °FClear.17 mph68%30.01 "Hg10 mi
3:00 AM59 °FPassing clouds.8 mph82%30.01 "HgN/A
2:30 AM59 °FPassing clouds.12 mph82%30.04 "HgN/A
2:00 AM59 °FPassing clouds.12 mph82%30.04 "HgN/A
1:30 AM61 °FClear.21 mph77%30.04 "Hg10 mi
1:00 AM61 °FClear.21 mph77%30.04 "Hg10 mi
12:30 AM61 °FClear.22 mph77%30.01 "Hg10 mi
12:00 AM61 °FClear.22 mph72%30.04 "Hg10 mi
11:30 PM
Fri, May 29
61 °FClear.21 mph77%30.04 "Hg10 mi
11:00 PM61 °FPassing clouds.18 mph72%30.04 "HgN/A
10:30 PM63 °FPassing clouds.10 mph64%30.04 "HgN/A
9:30 PM63 °FPassing clouds.13 mph68%30.01 "HgN/A
9:00 PM64 °FPassing clouds.18 mph60%30.01 "HgN/A
8:30 PM66 °FPassing clouds.22 mph56%29.98 "HgN/A
8:00 PM68 °FPassing clouds.21 mph53%29.98 "HgN/A
7:30 PM70 °FPassing clouds.15 mph50%29.98 "HgN/A
7:00 PM70 °FPassing clouds.17 mph50%29.98 "HgN/A
6:30 PM72 °FPassing clouds.16 mph47%29.95 "HgN/A
6:00 PM72 °FSunny.17 mph47%29.95 "Hg10 mi
5:30 PM72 °FSunny.17 mph47%29.95 "Hg10 mi
5:00 PM75 °FSunny.17 mph41%29.95 "Hg10 mi
4:30 PM73 °FSunny.18 mph47%29.95 "Hg10 mi
4:00 PM75 °FPassing clouds.16 mph44%29.95 "HgN/A
3:30 PM73 °FSunny.18 mph47%29.95 "Hg10 mi
3:00 PM75 °FSunny.16 mph44%29.95 "Hg10 mi
2:30 PM75 °FPassing clouds.15 mph41%29.95 "HgN/A
2:00 PM75 °FSunny.17 mph41%29.95 "Hg10 mi
1:30 PM75 °FSunny.18 mph44%29.95 "Hg10 mi
1:00 PM75 °FPassing clouds.13 mph41%29.95 "HgN/A
12:30 PM75 °FPassing clouds.10 mph44%29.95 "HgN/A
12:00 PM75 °FPassing clouds.12 mph50%29.95 "HgN/A
11:30 AM73 °FPassing clouds.12 mph50%29.95 "HgN/A
11:00 AM72 °FPassing clouds.9 mph57%29.95 "HgN/A
10:30 AM70 °FPassing clouds.12 mph64%29.95 "HgN/A
10:00 AM68 °FPassing clouds.9 mph73%29.95 "HgN/A
Weather by CustomWeather, © 2015

See weather overviewHow to use our weather pages